Погода в Твери

Погода в Твери : погода сейчас, прогноз погоды и архив. Всё, что Вы хотите узнать о погоде в Твери!

Хотите узнать прогноз погоды в Твери? Тогда Вам сюда: Погода в Твери

Поиск расширенной информации на нашем сайте:

Полезная информация:

Другие новости

Новости СМИ2

Главная страница сайта

Новости сайта

03.07.2017

Напоминаем, что на нашем специализированном сайте Метеоцентр.Азия вы можете получить высокодетализированные автоматические прогнозы погоды по пунктам России, СНГ и мира в авиационном формате (включающие направление и скорость ветра, видимость, явления погоды, количество и форму облачности, нижнюю и верхнюю границу облачности).

Рекомендуем:

Погода в Твери - сегодня

Время (UTC), дата Ветер
(°,м/с) 
Видим.   Явления Облачность Т
(°С)
Тd
(°С)
f(%) Тe
(°С)
Pmin
(гПа)
dP
(гПа)
Po
(мм)
O2
(г/м3)
Тmin Tmax R s Состояние
почвы
21 18.05.19 тихо ()   10 км    ясно 
+10.1 +4.6 69 +10  1017.9  0.6  750  291           
00 19.05.19 тихо ()   10 км    ясно 
+7.1 +3.8 80 +7  1019.5  1.4  751  294           
03 19.05.19 тихо ()   10 км    ясно 
+9.5 +4.5 71 +10  1020  0.7  752  292  +5         
06 19.05.19 300 (СЗ) 10 км    ясно 
+16.2 +3.3 42 +18  1020.1  0.5  752  286  +5        сухая 
09 19.05.19 340 (С) 10 км    ясно 
+20.3 +3.1 32 +20  1019.6  -0.2  752  282           
12 19.05.19 360 (С) 10 км    4/4 1000 м 
[Cu hum]
+21.5 +3.4 30 +22  1018.8  -0.8  751  280           
15 19.05.19 020 (С) 10 км    3/3 1000 м 
[Cu hum]
+21.4 +3.4 31 +21  1018.6  -0.2  751  280           
18 19.05.19 040 (СВ) 10 км    9/0 средняя, верхняя 
[Ac trans|Ci]
+15.9 +5.5 50 +17  1019.1  0.2  751  285    +22.8       
21 19.05.19 080 (В) 10 км    6/0 средняя, верхняя 
[Ac trans|Ci fib]
+10.9 +4.7 66 +12  1020.4  752  291           
00 20.05.19 070 (В) 10 км    3/0 верхняя 
[Ci fib]
+7.8 +3.6 75 +9  1022  1.4  753  294           
03 20.05.19 100 (В) 10 км    9/0 верхняя 
[Ci]
+9.5 +3.7 67 +11  1022.3  0.4  753  293  +7.1         
06 20.05.19 тихо ()   10 км    8/0 верхняя 
[Ci fib]
+16.2 +4.3 45 +16  1022  0.2  754  286  +7.1        сухая 
09 20.05.19 050 (СВ) 10 км    8/0 верхняя 
[Ci fib]
+20.7 +3.9 33 +21  1021.5  -0.3  753  282           
12 20.05.19 030 (СВ) 10 км    8/0 верхняя 
[Ci fib]
+23 +1.2 24 +23  1020.6  -0.8  753  280           
15 20.05.19 100 (В) 10 км    8/0 верхняя 
[Ci fib]
+22.5 +2.1 26 +23  1019.6  -0.9  752  280           
18 20.05.19 070 (В) 10 км    8/0 верхняя 
[Ci fib]
+17.2 +5.2 45 +19  1019.9  -0.1  752  284    +23.5       
21 20.05.19 110 (В) 10 км    6/3 1000 м средняя, верхняя 
[Sc|Ac trans|Ci fib]
+13.6 +5 56 +15  1020.4  0.3  752  288           
00 21.05.19 100 (В) 10 км    8/5 1000 м средняя 
[Sc|Ac trans]
+12.7 +4.9 59 +13  1020.6  752  289           
03 21.05.19 120 (ЮВ) 10 км    9/6 1000 м средняя 
[Sc|Ac trans]
+13.1 +5.4 60 +14  1020  -0.5  752  288  +11.7         
06 21.05.19 180 (Ю) 10 км    8/0 средняя 
[Ac trans]
+18.7 +4.1 38 +20  1019  -0.7  751  283  +11.7        сухая 
09 21.05.19 190 (Ю) 10 км    8/0 средняя, верхняя 
[Ac trans|Ci fib]
+22.7 +5.8 33 +23  1017.5  -1.3  750  278           
12 21.05.19 330 (СЗ) 10 км  в посл. час ливневой дождь  8/5 1000 м кучево-дожд., средняя 
[Cb calv|Ac trans]
+23 +8.6 40 +23  1015.8  -1.6  749  277           
15 21.05.19 220 (ЮЗ) 10 км    8/5 1000 м средняя 
[Sc|Ac trans]
+25.7 +3.6 24 +26  1013.4  -2.2  748  275      0.0     
18 21.05.19 190 (Ю) 10 км    6/0 средняя 
[Ac trans]
+20.7 +4.8 35 +21  1012.9  -0.7  747  279    +26  0.0     
21 21.05.19 210 (ЮЗ) 10 км    ясно 
+18.8 +5.7 42 +20  1012.6  -0.5  747  281           
Время (UTC), дата Ветер
(°,м/с) 
Видим.   Явления Облачность Т
(°С)
Тd
(°С)
f(%) Тe
(°С)
Pmin
(гПа)
dP
(гПа)
Po
(мм)
O2
(г/м3)
Тmin Tmax R s Состояние
почвы

Для получения пояснительной информации подведите курсор к названию столбца.

ПОГОДА в Твери - архив

Всё, что Вы хотите узнать о погоде в Твери - удобно и подробно!

Выберите нужную дату (начиная с 1 января 2018* года) и нажмите кнопку "Найти".
Будут отображены архивные сводки погоды по пункту Тверь, начиная с указанной даты.


Отображать данные в формате CSV (для использования в таблицах Excel)


Внимание! Наш архив погоды предназначен исключительно для личного некоммерческого использования в познавательных целях. Если Вам необходимы официальные справки о состоянии погоды (для производственных, юридических, коммерческих и т.п. целей), обращайтесь в органы Росгидромета.

*Примечание: данная дата относится к архиву по метеостанциям СССР (Россия, СНГ, Балтия).
Архив по метеостанциям Зарубежной Европы и Азии (кроме Китая) хранится 10 дней, по другим регионам земного шара (Китай, Африка, Америка, Австралия, Океания) - 1 день.

Тверь - район местоположения метеостанции


Название, широта, долгота, высота метеостанции:
Тверь (город) 56.8°ш. 35.7°д. 137 м над ур. моря [Российская Федерация]

Дополнительная информация

В oтличие oт бoльшинства пoгoдных сайтoв мы публикуем пoдрoбную метеoинфoрмацию в детальнoм прoфессиoнальнoм фoрмате.

Характеристики температуры и влажнoсти вoздуха измеряются на высoте 2 м в тени вдали oт зданий и деревьев.
Скoрoсть ветра измеряется на высoте 10 м (на урoвне рoста челoвека скoрoсть ветра ниже в 1.5-2 раза). Если метеoстанция нахoдится в гoрoде или в лесу, тo скoрoсть ветра занижена на 2-4 м/с пo сравнению с oткрытым местoм. Скoрoсть ветра над акватoриями крупных рек и oзёр, а также на вершинах хoлмoв на 2-5 м/с выше, чем в oбычных услoвиях.
Атмoсфернoе давление в разных тoчках местнoсти мoжет значительнo oтличаться oт давления на метеoстанции, в зависимoсти oт услoвий рельефа (при пoдъёме на 10 м давление пoнижается примернo на 1 мм рт.ст.).